Terminal Aerodrome Forecast
Issued by NWS Cleveland, OH

Home | Current Version | Previous Version | Graphics & Text | Print | Product List | Glossary On
Versions: 1 2 3 4 5 6 7 8 9 10 11 12 13 14 15 16 17 18 19
000
FTUS41 KCLE 160521
TAFMFD
TAF
KMFD 160521Z 1606/1706 VRB04KT P6SM SCT100 OVC200
     FM161100 13005KT P6SM BKN040 OVC100
     FM161500 13008KT 5SM BR SCT015 OVC025
     FM170200 13007KT 2SM -RA BR OVC004=

USA.gov is the U.S. government's official web portal to all federal, state and local government web resources and services.